[[{"header":{"parameterUnit":"m.s-1","parameterCategory":2,"la1":30.2991,"la2":30.254,"lo1":-89.0895,"lo2":-89.0444,"dy":0.0017,"dx":0.0017,"nx":28,"ny":28,"refTime":"2023-10-20T21:00:00:Z","depth":"0","parameterNumber":2,"parameterNumberName":"U-component_of_CURRENTS"},"data":[0,0,0,0,0,0,0,0,0,0,0,0,0,0,0,0,0,0,0,0,0,0,0,0,0,0,0,0,0,0,0,0,0,0,0,0,0,0,0,0,0,0,0,0,0,0,0,0,0,0,0,0,0,0,0,0,0,0,0.1769,0.1768,0,0.1683,0.1682,0.1681,0.1681,0.1682,0.1684,0.1685,0.1653,0.1651,0.1649,0,0,0,0,0,0,0,0,0,0,0,0,0,0.193,0.1927,0.1769,0.1768,0.1767,0.1683,0.1682,0.1681,0.1681,0.1682,0.1684,0.1685,0.1654,0.1651,0.1649,0,0,0,0,0,0,0,0,0,0,0,0,0,0.1853,0.1926,0.1769,0.1758,0.1756,0.1683,0.1682,0.168,0.1681,0.1682,0.1684,0.1686,0.1654,0.1652,0.1649,0.1595,0,0,0.164,0.1638,0,0,0,0,0,0,0,0,0.1857,0.1847,0.176,0.1758,0.1756,0.1695,0.1727,0.1655,0.168,0.1708,0.1685,0.1687,0.1671,0.1667,0.1645,0.1593,0.1592,0.1639,0.1638,0.1636,0.1636,0,0,0,0,0,0,0,0.1862,0.185,0.1734,0.1759,0.1756,0.1755,0.1746,0.1713,0.1681,0.1706,0.1706,0.1697,0.1671,0.1648,0.1645,0.1592,0.164,0.1637,0.1635,0.1634,0.1549,0.1549,0,0,0,0,0,0,0.1872,0.1855,0.1737,0.1732,0.1813,0.1751,0.1741,0.1712,0.1681,0.1677,0.1696,0.1697,0.1652,0.1648,0.1644,0.1623,0.1636,0.1634,0.1632,0.155,0.1549,0.1548,0,0,0,0,0,0,0.1875,0.1861,0.174,0.1794,0.1778,0.1746,0.1714,0.171,0.1688,0.1672,0.167,0.168,0.1653,0.1648,0.1616,0.1621,0.1632,0.163,0.155,0.1549,0.1549,0.1554,0,0,0,0,0,0,0.188,0.1862,0.1842,0.1793,0.1776,0.1695,0.1712,0.1707,0.168,0.1682,0.1657,0.1656,0.1654,0.1621,0.1613,0.1617,0.1627,0.1551,0.155,0.1549,0.1555,0.1554,0.1553,0,0,0,0,0,0.1885,0.1847,0.1841,0.1827,0.1749,0.1694,0.1684,0.1668,0.1678,0.1657,0.1649,0.1657,0.1611,0.1617,0.1609,0.1612,0.1551,0.155,0.1549,0.1555,0.1554,0.1553,0,0,0,0,0,0,0.1915,0.1842,0.1835,0.1779,0.1741,0.1694,0.1669,0.166,0.1633,0.164,0.1634,0.1631,0.1618,0.16,0.1608,0.1585,0.1588,0.1585,0.1595,0.1594,0.1593,0.168,0.1625,0,0,0,0,0,0.1909,0.1856,0.1804,0.1762,0.1739,0.1704,0.1679,0.1668,0.1639,0.1629,0.1615,0.1606,0.1602,0.1587,0.1579,0.1541,0.1603,0.1543,0.1542,0.1541,0.1606,0.1709,0.1726,0.1545,0.1545,0.1545,0,0,0.1912,0.1864,0.1837,0.1764,0.1732,0.17,0.1693,0.1651,0.1642,0.1628,0.1608,0.1602,0.1594,0.1576,0.1568,0.1561,0.1609,0.154,0.154,0.1607,0.171,0.1729,0.1745,0.1544,0.1544,0.1544,0,0,0.1892,0.1845,0.1798,0.1763,0.171,0.1688,0.1677,0.1628,0.1623,0.1587,0.1602,0.1609,0.1555,0.1581,0.1581,0.1566,0.1612,0.154,0.1594,0.169,0.1708,0.1725,0.177,0.1791,0.1527,0.1527,0.1527,0,0.1906,0.184,0.1781,0.1738,0.1725,0.1686,0.1665,0.1639,0.1595,0.1616,0.1585,0.1603,0.1577,0.1622,0.1617,0.1572,0.1622,0.1595,0.1696,0.1714,0.1731,0.1774,0.1797,0.1527,0.1527,0.1527,0.1527,0,0.1852,0.1814,0.1784,0.1723,0.1698,0.1668,0.1638,0.1626,0.1615,0.1617,0.1651,0.163,0.1664,0.1632,0.1615,0.1715,0.1706,0.1694,0.1711,0.1751,0.1791,0.1815,0.1527,0.1527,0.1527,0.1527,0,0,0.1859,0.1768,0.1763,0.1757,0.1697,0.1679,0.1668,0.1673,0.1712,0.1678,0.1747,0.1731,0.1759,0.1767,0.1752,0.1819,0.1933,0.1808,0.1813,0.1876,0.2129,0.2049,0.2067,0.1946,0.1951,0.1956,0.2088,0,0.1849,0.1792,0.1747,0.173,0.1711,0.1696,0.1705,0.1713,0.1721,0.1769,0.1794,0.183,0.1794,0.1812,0.1886,0.1923,0.2008,0.1898,0.2065,0.207,0.2015,0.2097,0.1988,0.2094,0.2112,0.2117,0.2119,0,0.1818,0.1789,0.1769,0.1768,0.1763,0.1758,0.1811,0.1808,0.1868,0.1882,0.1948,0.1961,0.2042,0.2006,0.2157,0.2088,0.2145,0.2172,0.2177,0.2143,0.2039,0.2067,0.2138,0.1994,0.2157,0.2154,0.2152,0,0.1864,0.1816,0.1815,0.1805,0.1788,0.1811,0.1816,0.1861,0.1878,0.1967,0.1989,0.2105,0.2126,0.2251,0.226,0.224,0.2424,0.2392,0.2388,0.2379,0.2347,0.2326,0.2334,0.2579,0.2579,0.2578,0.2578,0,0.1873,0.1875,0.1842,0.1842,0.1871,0.1857,0.1906,0.1931,0.1982,0.201,0.2058,0.2095,0.2197,0.2269,0.2334,0.2413,0.2484,0.2457,0.2442,0.2331,0.2309,0.223,0.2188,0.2583,0.2582,0.2581,0.258,0,0.1912,0.1885,0.1886,0.1883,0.1884,0.1908,0.191,0.1942,0.1985,0.2025,0.2045,0.2108,0.2191,0.2269,0.243,0.2459,0.247,0.2582,0.241,0.2374,0.2238,0.2201,0.2166,0.2125,0.2643,0.2642,0.2642,0,0.192,0.1921,0.1913,0.1904,0.1898,0.1914,0.1917,0.1945,0.1957,0.201,0.2025,0.2107,0.2137,0.2306,0.2406,0.2534,0.243,0.2495,0.2462,0.2263,0.2213,0.2057,0.2015,0.2396,0.2393,0.2391,0.2389,0,0.1941,0.1941,0.1935,0.1914,0.1909,0.1892,0.1893,0.19,0.1924,0.1943,0.1966,0.1999,0.2137,0.2198,0.2335,0.2404,0.2313,0.2457,0.233,0.2117,0.1879,0.1816,0.2226,0.2371,0.2373,0.2374,0.2375,0.2376,0.1955,0.1947,0.1925,0.1896,0.1885,0.1844,0.181,0.1813,0.1807,0.1798,0.1878,0.1893,0.2002,0.2181,0.2208,0.217,0.2211,0.2121,0.2121,0.1998,0.1883,0.2225,0.2292,0.2294,0.2295,0.2296,0.2297,0,0.192,0.1904,0.1892,0.1837,0.1789,0.1796,0.176,0.1707,0.1661,0.1705,0.1711,0.1782,0.1803,0.1877,0.1912,0.1834,0.1755,0.1757,0.1533,0.1541,0.1924,0.1832,0.1705,0.1705,0.1705,0.1705,0.1705,0.1706,0.1903,0.1857,0.1828,0.1727,0.1691,0.1593,0.1549,0.1504,0.1509,0.1482,0.1504,0.1564,0.1606,0.1526,0.1425,0.1428,0.1299,0.1205,0.1233,0.1487,0.1519,0.1549,0.145,0.1244,0.1244,0.0742,0.0739,0.0736]},{"header":{"parameterUnit":"m.s-1","parameterCategory":2,"la1":30.2991,"la2":30.254,"lo1":-89.0895,"lo2":-89.0444,"dy":0.0017,"dx":0.0017,"nx":28,"ny":28,"refTime":"2023-10-20T21:00:00:Z","depth":"0","parameterNumber":3,"parameterNumberName":"V-component_of_CURRENTS"},"data":[0,0,0,0,0,0,0,0,0,0,0,0,0,0,0,0,0,0,0,0,0,0,0,0,0,0,0,0,0,0,0,0,0,0,0,0,0,0,0,0,0,0,0,0,0,0,0,0,0,0,0,0,0,0,0,0,0,0,-0.0473,-0.0473,0,-0.0417,-0.0416,-0.0415,-0.0431,-0.0433,-0.0434,-0.0436,-0.0445,-0.0444,-0.0443,0,0,0,0,0,0,0,0,0,0,0,0,0,-0.0489,-0.0489,-0.0473,-0.0473,-0.0472,-0.0417,-0.0416,-0.0415,-0.0431,-0.0433,-0.0435,-0.0436,-0.0446,-0.0445,-0.0443,0,0,0,0,0,0,0,0,0,0,0,0,0,-0.046,-0.0489,-0.0473,-0.0476,-0.0476,-0.0417,-0.0416,-0.0414,-0.0431,-0.0433,-0.0435,-0.0437,-0.0446,-0.0445,-0.0443,-0.0389,0,0,-0.0438,-0.0437,0,0,0,0,0,0,0,0,-0.0462,-0.0459,-0.0476,-0.0476,-0.0476,-0.0436,-0.0425,-0.041,-0.043,-0.0445,-0.0436,-0.0438,-0.0449,-0.0447,-0.0426,-0.039,-0.039,-0.0438,-0.0437,-0.0436,-0.0436,0,0,0,0,0,0,0,-0.0464,-0.0461,-0.0448,-0.0475,-0.0475,-0.0444,-0.0443,-0.0421,-0.0434,-0.0443,-0.0445,-0.0443,-0.0449,-0.0428,-0.0427,-0.0391,-0.0438,-0.0437,-0.0436,-0.0435,-0.0357,-0.0356,0,0,0,0,0,0,-0.048,-0.0463,-0.045,-0.0446,-0.0477,-0.0443,-0.0441,-0.0444,-0.0433,-0.0434,-0.0441,-0.0444,-0.0429,-0.0429,-0.0428,-0.0378,-0.0436,-0.0435,-0.0434,-0.0358,-0.0357,-0.0355,0,0,0,0,0,0,-0.048,-0.0479,-0.0452,-0.0455,-0.045,-0.0441,-0.0443,-0.0442,-0.0426,-0.0431,-0.0433,-0.043,-0.0431,-0.043,-0.0408,-0.0379,-0.0434,-0.0433,-0.0359,-0.0358,-0.0356,-0.0271,0,0,0,0,0,0,-0.0481,-0.048,-0.0473,-0.0457,-0.0451,-0.0408,-0.0442,-0.0439,-0.0423,-0.0426,-0.0421,-0.0424,-0.0433,-0.041,-0.0406,-0.0378,-0.0431,-0.0361,-0.0359,-0.0357,-0.0275,-0.0267,-0.026,0,0,0,0,0,-0.0482,-0.0456,-0.0473,-0.0471,-0.0447,-0.0407,-0.0399,-0.0398,-0.0421,-0.0396,-0.0403,-0.0424,-0.0395,-0.0407,-0.0403,-0.0373,-0.0362,-0.0359,-0.0357,-0.0279,-0.0269,-0.026,0,0,0,0,0,0,-0.0448,-0.0455,-0.0474,-0.045,-0.0432,-0.0411,-0.0379,-0.0391,-0.0372,-0.0378,-0.0398,-0.0399,-0.0373,-0.0383,-0.0396,-0.0348,-0.0386,-0.0383,-0.0328,-0.0319,-0.0311,-0.0258,-0.043,0,0,0,0,0,-0.0442,-0.0431,-0.0431,-0.0409,-0.0398,-0.0391,-0.0372,-0.0375,-0.0363,-0.0357,-0.036,-0.0363,-0.0354,-0.0347,-0.0339,-0.03,-0.027,-0.0284,-0.0276,-0.0269,-0.0224,-0.0143,-0.0123,-0.0347,-0.0347,-0.0347,0,0,-0.0421,-0.0423,-0.0417,-0.0401,-0.0384,-0.0344,-0.0383,-0.0346,-0.0317,-0.0359,-0.0316,-0.0331,-0.0339,-0.0302,-0.0292,-0.0309,-0.0196,-0.0266,-0.0259,-0.0217,-0.0138,-0.0116,-0.0096,-0.0346,-0.0346,-0.0346,0,0,-0.0357,-0.0375,-0.0339,-0.0323,-0.0302,-0.0298,-0.0291,-0.0271,-0.0266,-0.023,-0.0261,-0.0248,-0.0236,-0.0226,-0.0224,-0.0163,-0.0159,-0.0182,-0.0088,-0.0012,0.0009,0.0027,0.0071,0.0093,-0.0174,-0.0174,-0.0174,0,-0.0328,-0.0294,-0.0316,-0.0272,-0.0247,-0.0278,-0.0221,-0.0211,-0.0191,-0.0161,-0.0209,-0.0155,-0.0189,-0.0117,-0.0117,-0.014,-0.0104,-0.0125,0.0003,0.0022,0.004,0.008,0.0103,-0.017,-0.017,-0.0171,-0.0171,0,-0.0238,-0.0209,-0.0177,-0.0147,-0.0123,-0.0075,-0.0078,-0.0052,-0.0065,-0.005,0.001,-0.0017,0.0024,-0.0007,-0.0049,0.0055,0.0036,0.0003,-0.0013,0.0068,0.0104,0.0127,-0.0163,-0.0165,-0.0166,-0.0167,0,0,-0.0165,-0.0124,-0.011,-0.0073,-0.0053,-0.0014,0.003,0.0086,0.015,0.0144,0.0243,0.0218,0.0214,0.0216,0.0171,0.0214,0.0321,0.0163,0.0165,0.0222,0.0489,0.0407,0.0423,0.0319,0.0324,0.0328,0.0456,0,-0.0078,0.0019,0.0013,0.0113,0.0167,0.0153,0.0208,0.0247,0.027,0.0355,0.034,0.0401,0.0295,0.0318,0.0352,0.0332,0.0389,0.0289,0.039,0.0393,0.0325,0.0451,0.0458,0.0569,0.0478,0.0482,0.0484,0,0.0026,0.0072,0.0178,0.0252,0.0277,0.0327,0.0425,0.0471,0.0554,0.0577,0.0641,0.063,0.0684,0.0579,0.0645,0.059,0.0565,0.0539,0.0543,0.0468,0.0357,0.0476,0.0613,0.0541,0.0519,0.0516,0.0514,0,0.0111,0.0198,0.0285,0.031,0.0381,0.0435,0.0476,0.0555,0.0614,0.0733,0.079,0.0865,0.0885,0.0906,0.0802,0.0757,0.0868,0.08,0.0718,0.071,0.0739,0.0725,0.084,0.0897,0.0897,0.0897,0.0896,0,0.0218,0.0298,0.0334,0.0389,0.0501,0.0523,0.0655,0.0705,0.0804,0.0891,0.0914,0.0984,0.0968,0.0991,0.0923,0.0887,0.0972,0.0789,0.0766,0.076,0.0747,0.0698,0.0652,0.0901,0.09,0.0899,0.0898,0,0.0324,0.0345,0.0445,0.0519,0.0546,0.0629,0.0724,0.0814,0.0893,0.101,0.1046,0.1105,0.1131,0.1094,0.1109,0.1017,0.0972,0.0962,0.0928,0.0899,0.0738,0.0695,0.0826,0.0801,0.0944,0.0943,0.0943,0,0.0401,0.0458,0.0529,0.0567,0.0605,0.0707,0.077,0.0854,0.0931,0.1057,0.1113,0.1179,0.1206,0.1204,0.1108,0.1057,0.0971,0.0988,0.09,0.0784,0.0722,0.0693,0.066,0.097,0.0969,0.0969,0.0969,0,0.0526,0.0534,0.0588,0.0648,0.071,0.0793,0.0882,0.0947,0.1035,0.1117,0.1198,0.1238,0.124,0.1204,0.1117,0.105,0.0952,0.0975,0.0911,0.082,0.0753,0.0697,0.0792,0.0966,0.0966,0.0966,0.0966,0.0967,0.0599,0.0634,0.0659,0.0719,0.078,0.0846,0.0899,0.0979,0.1074,0.1164,0.1216,0.1272,0.1268,0.1165,0.1057,0.09,0.0909,0.0837,0.0817,0.0814,0.0739,0.0795,0.0886,0.0885,0.0885,0.0885,0.0885,0,0.065,0.0663,0.0722,0.0767,0.0813,0.0846,0.094,0.0975,0.1043,0.1147,0.1204,0.127,0.1199,0.111,0.0939,0.0785,0.0741,0.071,0.071,0.0698,0.0818,0.0761,0.0762,0.0762,0.0762,0.0762,0.0762,0.0762,0.0673,0.0696,0.0704,0.0761,0.0797,0.0837,0.0872,0.0931,0.1006,0.1096,0.1167,0.1244,0.1286,0.0992,0.0763,0.0684,0.0591,0.0576,0.0523,0.0609,0.062,0.063,0.0567,0.0527,0.0527,0.0428,0.0427,0.0426]}],[{"header":{"parameterUnit":"m.s-1","parameterCategory":2,"la1":30.2991,"la2":30.254,"lo1":-89.0895,"lo2":-89.0444,"dy":0.0017,"dx":0.0017,"nx":28,"ny":28,"refTime":"2023-10-20T21:00:00:Z","depth":"2","parameterNumber":2,"parameterNumberName":"U-component_of_CURRENTS"},"data":[0,0,0,0,0,0,0,0,0,0,0,0,0,0,0,0,0,0,0,0,0,0,0,0,0,0,0,0,0,0,0,0,0,0,0,0,0,0,0,0,0,0,0,0,0,0,0,0,0,0,0,0,0,0,0,0,0,0,0.1781,0.1781,0,0.1782,0.1782,0.1782,0.1803,0.1804,0.1805,0.1805,0.1817,0.1816,0.1816,0,0,0,0,0,0,0,0,0,0,0,0,0,0.1748,0.1749,0.1781,0.1781,0.1781,0.1782,0.1782,0.1782,0.1803,0.1804,0.1805,0.1806,0.1817,0.1816,0.1816,0,0,0,0,0,0,0,0,0,0,0,0,0,0.1755,0.1749,0.1781,0.1794,0.1795,0.1783,0.1782,0.1782,0.1803,0.1804,0.1805,0.1806,0.1817,0.1816,0.1816,0.1791,0,0,0.1814,0.1814,0,0,0,0,0,0,0,0,0.1755,0.1756,0.1792,0.1793,0.1794,0.1796,0.1775,0.1786,0.1803,0.1798,0.1805,0.1807,0.1811,0.1811,0.1806,0.1791,0.1792,0.1814,0.1814,0.1813,0.1813,0,0,0,0,0,0,0,0.1755,0.1756,0.1779,0.1792,0.1793,0.1783,0.1785,0.1777,0.1797,0.1798,0.18,0.1803,0.1812,0.1806,0.1806,0.1792,0.1814,0.1814,0.1813,0.1813,0.1766,0.1765,0,0,0,0,0,0,0.176,0.1756,0.178,0.178,0.1779,0.1783,0.1785,0.1792,0.1797,0.1799,0.1802,0.1804,0.1807,0.1807,0.1807,0.1783,0.1813,0.1813,0.1813,0.1767,0.1766,0.1765,0,0,0,0,0,0,0.1759,0.1762,0.1779,0.1769,0.1771,0.1783,0.179,0.1792,0.1792,0.18,0.1803,0.1802,0.1808,0.1808,0.18,0.1783,0.1813,0.1812,0.1768,0.1767,0.1766,0.1731,0,0,0,0,0,0,0.1758,0.1762,0.1767,0.177,0.1772,0.1769,0.1789,0.1791,0.1793,0.1796,0.18,0.1802,0.1808,0.18,0.1799,0.1783,0.1812,0.1769,0.1768,0.1766,0.1733,0.1729,0.1725,0,0,0,0,0,0.1757,0.1751,0.1767,0.177,0.1779,0.1768,0.1767,0.1778,0.1792,0.1783,0.1791,0.1802,0.1789,0.1799,0.1798,0.1781,0.177,0.1768,0.1766,0.1735,0.173,0.1725,0,0,0,0,0,0,0.1724,0.1753,0.1771,0.1771,0.1772,0.1773,0.1766,0.1775,0.1773,0.1779,0.179,0.1791,0.1779,0.1782,0.1793,0.1762,0.1781,0.1779,0.1758,0.1753,0.1749,0.1825,0.1811,0,0,0,0,0,0.1725,0.1737,0.1751,0.1749,0.1753,0.1761,0.1759,0.1766,0.1766,0.1767,0.1768,0.177,0.1766,0.1763,0.1759,0.1739,0.1789,0.1727,0.1723,0.1719,0.178,0.1849,0.1858,0.1758,0.1758,0.1758,0,0,0.1712,0.1728,0.1735,0.1745,0.1749,0.1748,0.1762,0.1755,0.1754,0.1767,0.1759,0.1755,0.1759,0.174,0.1734,0.1742,0.1757,0.1717,0.1714,0.1778,0.1848,0.1858,0.1867,0.1757,0.1757,0.1757,0,0,0.1689,0.1706,0.1713,0.1717,0.1728,0.173,0.173,0.173,0.1732,0.1715,0.1732,0.174,0.1704,0.1728,0.173,0.1704,0.1734,0.167,0.1709,0.1771,0.1782,0.1792,0.1802,0.1814,0.1665,0.1665,0.1664,0,0.1678,0.1697,0.1706,0.1711,0.1726,0.1725,0.1734,0.172,0.1715,0.1735,0.1707,0.1726,0.1714,0.1748,0.1731,0.17,0.1724,0.1724,0.1771,0.1782,0.1793,0.1802,0.1816,0.1663,0.1663,0.1663,0.1663,0,0.1661,0.1685,0.1682,0.1704,0.1706,0.1711,0.171,0.1705,0.17,0.1708,0.173,0.1723,0.1757,0.172,0.1713,0.1775,0.1758,0.1759,0.1793,0.1802,0.1808,0.1823,0.166,0.1661,0.1661,0.1662,0,0,0.1646,0.1673,0.1682,0.1711,0.1718,0.1723,0.1716,0.174,0.1768,0.1744,0.1799,0.1777,0.1804,0.1814,0.1806,0.1849,0.1898,0.1834,0.1838,0.1861,0.2003,0.1906,0.1913,0.1903,0.1907,0.191,0.1953,0,0.1651,0.1685,0.1688,0.1719,0.1748,0.1752,0.1753,0.1767,0.1773,0.1808,0.1829,0.186,0.1825,0.1845,0.1886,0.1906,0.1947,0.1885,0.1981,0.1985,0.1912,0.1931,0.1671,0.1683,0.1968,0.197,0.1972,0,0.1661,0.1692,0.1735,0.1781,0.1791,0.1793,0.1846,0.1844,0.1884,0.1895,0.1948,0.1959,0.2021,0.1988,0.2069,0.2026,0.2036,0.2043,0.2044,0.2002,0.1919,0.1732,0.17,0.1997,0.1995,0.1993,0.1992,0,0.1703,0.1736,0.1785,0.1799,0.1827,0.1848,0.1857,0.1888,0.1904,0.1975,0.2,0.2074,0.2102,0.2156,0.2136,0.2119,0.2214,0.2188,0.2117,0.2107,0.1938,0.1908,0.2292,0.2291,0.2291,0.2291,0.2291,0,0.1739,0.1784,0.181,0.1843,0.1884,0.1892,0.1936,0.1954,0.1995,0.2025,0.2061,0.2097,0.2152,0.2182,0.2186,0.2179,0.2254,0.216,0.2137,0.1905,0.1874,0.2205,0.2194,0.2293,0.2292,0.2292,0.2292,0,0.1789,0.1812,0.1865,0.1902,0.1911,0.1941,0.196,0.1981,0.2022,0.2069,0.2094,0.2134,0.2168,0.219,0.2257,0.2217,0.2237,0.222,0.1915,0.1857,0.2076,0.2062,0.2171,0.2169,0.2167,0.2165,0.2163,0,0.1818,0.1857,0.1903,0.1912,0.1927,0.1961,0.1968,0.2,0.2012,0.2072,0.2087,0.214,0.2136,0.2166,0.2096,0.2083,0.2199,0.1874,0.1822,0.211,0.2076,0.2066,0.2056,0.1548,0.1541,0.1536,0.1532,0,0.1858,0.1877,0.1902,0.1933,0.1945,0.1957,0.1971,0.1981,0.2009,0.2031,0.2044,0.2053,0.2025,0.1869,0.1838,0.1804,0.1854,0.1769,0.2174,0.1621,0.1526,0.1491,0.1501,0.1485,0.149,0.1493,0.1496,0.1497,0.186,0.188,0.1902,0.1922,0.1935,0.193,0.192,0.1916,0.1916,0.1856,0.1915,0.1778,0.1731,0.1509,0.1485,0.1436,0.1579,0.1504,0.1518,0.1539,0.1462,0.137,0.1281,0.1284,0.1287,0.129,0.1292,0,0.1835,0.1862,0.188,0.1886,0.1874,0.1904,0.1894,0.1831,0.1788,0.1662,0.1606,0.1299,0.1163,0.1153,0.0973,0.0995,0.0976,0.0994,0.0938,0.0981,0.102,0.0918,0.0593,0.0592,0.0591,0.059,0,0,0.1816,0.182,0.1833,0.1808,0.1818,0.1781,0.1765,0.1673,0.1552,0.128,0.1073,0.1005,0.1012,0.0746,0.0744,0.0649,0.0821,0.0614,0.115,0.1119,0.1159,0.1265,0.1149,0,0,0,0,0]},{"header":{"parameterUnit":"m.s-1","parameterCategory":2,"la1":30.2991,"la2":30.254,"lo1":-89.0895,"lo2":-89.0444,"dy":0.0017,"dx":0.0017,"nx":28,"ny":28,"refTime":"2023-10-20T21:00:00:Z","depth":"2","parameterNumber":3,"parameterNumberName":"V-component_of_CURRENTS"},"data":[0,0,0,0,0,0,0,0,0,0,0,0,0,0,0,0,0,0,0,0,0,0,0,0,0,0,0,0,0,0,0,0,0,0,0,0,0,0,0,0,0,0,0,0,0,0,0,0,0,0,0,0,0,0,0,0,0,0,-0.0391,-0.0392,0,-0.0447,-0.0448,-0.0448,-0.0497,-0.0498,-0.0498,-0.0499,-0.055,-0.0551,-0.0552,0,0,0,0,0,0,0,0,0,0,0,0,0,-0.0296,-0.0298,-0.0391,-0.0392,-0.0393,-0.0447,-0.0448,-0.0448,-0.0497,-0.0498,-0.0499,-0.0499,-0.055,-0.0551,-0.0552,0,0,0,0,0,0,0,0,0,0,0,0,0,-0.0343,-0.0298,-0.0391,-0.0424,-0.0427,-0.0447,-0.0448,-0.0449,-0.0497,-0.0498,-0.0499,-0.05,-0.055,-0.0551,-0.0552,-0.0541,0,0,-0.0556,-0.0556,0,0,0,0,0,0,0,0,-0.034,-0.0346,-0.0418,-0.0422,-0.0426,-0.0466,-0.0433,-0.0479,-0.0497,-0.047,-0.0499,-0.05,-0.0521,-0.0525,-0.0533,-0.0544,-0.0546,-0.0556,-0.0556,-0.0557,-0.0557,0,0,0,0,0,0,0,-0.0337,-0.0344,-0.0413,-0.0419,-0.0423,-0.0425,-0.0433,-0.0442,-0.049,-0.0473,-0.0476,-0.0483,-0.0523,-0.0532,-0.0534,-0.0547,-0.0556,-0.0557,-0.0557,-0.0558,-0.053,-0.0529,0,0,0,0,0,0,-0.0332,-0.0341,-0.0411,-0.0415,-0.0384,-0.0426,-0.0435,-0.0452,-0.049,-0.0497,-0.0482,-0.0485,-0.0529,-0.0533,-0.0536,-0.0492,-0.0557,-0.0558,-0.0559,-0.0532,-0.053,-0.0528,0,0,0,0,0,0,-0.0329,-0.0338,-0.0409,-0.0378,-0.0388,-0.0427,-0.0446,-0.0453,-0.0477,-0.0497,-0.0504,-0.0501,-0.053,-0.0535,-0.0539,-0.0496,-0.0559,-0.056,-0.0533,-0.0531,-0.0529,-0.0426,0,0,0,0,0,0,-0.0327,-0.0337,-0.0357,-0.0379,-0.0389,-0.0424,-0.0445,-0.0453,-0.0479,-0.0484,-0.0515,-0.052,-0.0531,-0.0536,-0.054,-0.0499,-0.0561,-0.0535,-0.0532,-0.053,-0.0431,-0.0421,-0.0411,0,0,0,0,0,-0.0323,-0.0346,-0.0358,-0.0367,-0.0413,-0.0424,-0.0429,-0.0459,-0.0479,-0.0486,-0.0497,-0.052,-0.0521,-0.0537,-0.0541,-0.0499,-0.0537,-0.0533,-0.053,-0.0436,-0.0423,-0.0412,0,0,0,0,0,0,-0.0323,-0.0353,-0.0367,-0.0401,-0.0412,-0.0432,-0.0449,-0.0464,-0.0481,-0.0487,-0.0509,-0.0513,-0.0494,-0.0518,-0.0535,-0.0483,-0.053,-0.0527,-0.0456,-0.0445,-0.0435,-0.0422,-0.0562,0,0,0,0,0,-0.0329,-0.0353,-0.0372,-0.0399,-0.0405,-0.0428,-0.0441,-0.0453,-0.0466,-0.0476,-0.0485,-0.0492,-0.048,-0.0483,-0.0481,-0.0464,-0.0514,-0.0439,-0.0429,-0.042,-0.0413,-0.0456,-0.045,-0.0518,-0.0518,-0.0518,0,0,-0.034,-0.0358,-0.0374,-0.04,-0.0414,-0.0393,-0.0438,-0.0452,-0.0422,-0.0476,-0.0446,-0.046,-0.0469,-0.0435,-0.0429,-0.0453,-0.0428,-0.0416,-0.0408,-0.0406,-0.0452,-0.0446,-0.044,-0.0515,-0.0516,-0.0516,0,0,-0.0348,-0.0383,-0.0393,-0.0387,-0.04,-0.0393,-0.0396,-0.0404,-0.0403,-0.0375,-0.0395,-0.0388,-0.0378,-0.0368,-0.0363,-0.0304,-0.0373,-0.0304,-0.0244,-0.0286,-0.0281,-0.0278,-0.034,-0.0342,-0.0301,-0.0301,-0.03,0,-0.036,-0.0362,-0.0397,-0.0381,-0.036,-0.0384,-0.0351,-0.0344,-0.0346,-0.0337,-0.035,-0.0329,-0.0335,-0.0297,-0.0262,-0.0278,-0.0331,-0.0286,-0.0274,-0.0271,-0.0269,-0.0334,-0.0338,-0.0295,-0.0296,-0.0296,-0.0297,0,-0.0354,-0.0344,-0.0344,-0.0319,-0.0303,-0.0281,-0.0257,-0.024,-0.0231,-0.0227,-0.0199,-0.0208,-0.0203,-0.019,-0.0199,-0.0177,-0.0229,-0.0256,-0.0305,-0.0256,-0.0328,-0.0334,-0.0288,-0.029,-0.0291,-0.0292,0,0,-0.0398,-0.0348,-0.0345,-0.0302,-0.0257,-0.0239,-0.0175,-0.0133,-0.0116,-0.0099,-0.0076,-0.0034,-0.0072,-0.0069,-0.0092,-0.0113,-0.0132,-0.017,-0.0174,-0.0232,-0.0251,-0.0168,-0.0169,-0.0168,-0.0168,-0.0168,-0.031,0,-0.0373,-0.0316,-0.0291,-0.0205,-0.0162,-0.0129,-0.0075,-0.0042,-0.0026,-0.0013,-0.0017,-0.0007,-0.0017,-0.0024,-0.0039,-0.0116,-0.0144,-0.0093,-0.0289,-0.0295,-0.0227,-0.017,-0.0119,-0.0229,-0.0317,-0.0318,-0.0319,0,-0.0363,-0.0316,-0.0229,-0.0133,-0.0116,-0.0058,0.002,0.0059,0.0074,0.0075,0.0079,0.0049,0.0046,0.0017,-0.0078,-0.0054,-0.0133,-0.0196,-0.0204,-0.0164,-0.0221,-0.0291,-0.0239,-0.033,-0.0329,-0.0329,-0.0328,0,-0.0357,-0.0267,-0.0185,-0.0148,-0.0053,0.0001,0.005,0.0083,0.0104,0.0117,0.0109,0.0088,0.0057,-0.0018,-0.0119,-0.0112,-0.0258,-0.0274,-0.0278,-0.0277,-0.0286,-0.0282,-0.0345,-0.0344,-0.0344,-0.0344,-0.0343,0,-0.0326,-0.0262,-0.0172,-0.0122,-0.0037,0.0019,0.0083,0.0118,0.0138,0.014,0.0141,0.0113,0.0044,-0.0042,-0.0127,-0.0214,-0.027,-0.0251,-0.029,-0.0247,-0.0238,-0.0368,-0.0368,-0.0349,-0.0348,-0.0347,-0.0346,0,-0.0329,-0.0267,-0.0176,-0.0067,-0.0027,0.0027,0.011,0.013,0.0153,0.0155,0.016,0.0113,0.0022,-0.0059,-0.0208,-0.0225,-0.0321,-0.0349,-0.029,-0.0314,-0.0317,-0.0311,-0.0348,-0.0346,-0.0344,-0.0342,-0.0341,0,-0.0322,-0.0275,-0.0155,-0.0109,-0.0048,0.0033,0.0075,0.0135,0.0141,0.0137,0.0119,0.0062,0.0026,-0.0125,-0.0161,-0.0252,-0.0333,-0.0281,-0.021,-0.0274,-0.031,-0.0307,-0.0303,-0.0218,-0.0216,-0.0214,-0.0213,0,-0.0318,-0.0281,-0.022,-0.0124,-0.0052,0.0016,0.0078,0.0084,0.012,0.0116,0.0067,0.0054,0.0003,-0.0023,-0.0076,-0.0151,-0.0236,-0.024,-0.036,-0.0183,-0.0151,-0.0186,-0.0188,-0.0197,-0.0199,-0.02,-0.0201,-0.0201,-0.0335,-0.0307,-0.0233,-0.0144,-0.0064,-0.0007,0.0018,0.0046,0.0055,0.0107,0.0079,0.014,0.0133,0.0162,0.0031,-0.0086,-0.0088,-0.0134,-0.0141,-0.015,-0.0067,-0.0028,-0.004,-0.004,-0.0041,-0.0041,-0.0042,0,-0.0346,-0.0311,-0.0252,-0.0153,-0.0092,-0.0015,0.0017,0.0023,0.0013,0.0163,0.0211,0.029,0.0309,0.0229,0.013,0.0067,0.002,-0.0018,-0.0058,-0.0071,-0.0083,0.0002,0.0047,0.0047,0.0046,0.0046,0,0,-0.0349,-0.0314,-0.0283,-0.0193,-0.0112,-0.0042,-0.0023,-0.002,0.0065,0.0216,0.0368,0.0584,0.0463,0.042,0.0278,0.0157,0.0051,0.0122,0.0068,0.0027,0.0016,-0.0122,-0.0001,0,0,0,0,0]}],[{"header":{"parameterUnit":"m.s-1","parameterCategory":2,"la1":30.2991,"la2":30.254,"lo1":-89.0895,"lo2":-89.0444,"dy":0.0017,"dx":0.0017,"nx":28,"ny":28,"refTime":"2023-10-20T21:00:00:Z","depth":"4","parameterNumber":2,"parameterNumberName":"U-component_of_CURRENTS"},"data":[0,0,0,0,0,0,0,0,0,0,0,0,0,0,0,0,0,0,0,0,0,0,0,0,0,0,0,0,0,0,0,0,0,0,0,0,0,0,0,0,0,0,0,0,0,0,0,0,0,0,0,0,0,0,0,0,0,0,-0.0145,-0.0145,0,-0.0077,-0.0076,-0.0074,0.0006,0.0006,0.0007,0.0007,0.0118,0.0121,0.0123,0,0,0,0,0,0,0,0,0,0,0,0,0,-0.0154,-0.0154,-0.0145,-0.0145,-0.0145,-0.0077,-0.0076,-0.0074,0.0006,0.0006,0.0007,0.0007,0.0117,0.012,0.0123,0,0,0,0,0,0,0,0,0,0,0,0,0,-0.0117,-0.0154,-0.0145,-0.0103,-0.0099,-0.0078,-0.0076,-0.0074,0.0005,0.0006,0.0007,0.0007,0.0116,0.012,0.0124,0.0133,0,0,0.0135,0.0137,0,0,0,0,0,0,0,0,-0.0119,-0.0116,-0.011,-0.0106,-0.0102,-0.0051,-0.0039,-0.0005,0.0005,-0.0026,0.0007,0.0008,0.006,0.0068,0.0091,0.0138,0.0143,0.0136,0.0138,0.014,0.0141,0,0,0,0,0,0,0,-0.0122,-0.0118,-0.011,-0.011,-0.0105,-0.0071,-0.0064,-0.0031,0.0019,-0.0023,-0.0019,-0.0025,0.0063,0.0087,0.0094,0.0145,0.0136,0.0139,0.0141,0.0143,0.0395,0.0399,0,0,0,0,0,0,-0.0151,-0.0121,-0.0112,-0.0109,-0.0119,-0.0072,-0.0064,-0.0061,0.0018,0.0028,-0.0026,-0.0022,0.008,0.0089,0.0098,0.0288,0.014,0.0143,0.0145,0.039,0.0396,0.04,0,0,0,0,0,0,-0.0151,-0.015,-0.0115,-0.012,-0.0114,-0.0074,-0.007,-0.006,0.0027,0.0014,0.0027,0.0057,0.0081,0.0093,0.019,0.0286,0.0145,0.0148,0.0385,0.0392,0.0398,0.0556,0,0,0,0,0,0,-0.0151,-0.015,-0.0144,-0.0122,-0.0116,-0.0059,-0.0072,-0.006,0.0013,0.0022,0.0088,0.0095,0.0082,0.0185,0.0194,0.0289,0.0151,0.0379,0.0388,0.0396,0.0545,0.0567,0.0586,0,0,0,0,0,-0.0152,-0.0147,-0.0144,-0.0143,-0.0112,-0.0058,-0.0047,-0.0012,0.0017,0.0069,0.012,0.0097,0.0244,0.0191,0.0201,0.0299,0.0375,0.0386,0.0395,0.0536,0.0563,0.0585,0,0,0,0,0,0,-0.0151,-0.0139,-0.0134,-0.0128,-0.0079,-0.0046,-0.0003,0.0031,0.0114,0.0147,0.0145,0.0157,0.0279,0.027,0.0212,0.0398,0.031,0.0322,0.0414,0.0439,0.0459,0.0417,0.0154,0,0,0,0,0,-0.0153,-0.0138,-0.0113,-0.0099,-0.0065,-0.0015,0.0017,0.006,0.0118,0.016,0.0214,0.0271,0.0318,0.0364,0.0404,0.0504,0.0433,0.0578,0.0598,0.0615,0.0591,0.0576,0.0591,0.0433,0.0433,0.0433,0,0,-0.0157,-0.0144,-0.0139,-0.0096,-0.0048,0.001,0.0014,0.0102,0.0166,0.0157,0.03,0.0348,0.036,0.0473,0.0528,0.0485,0.0628,0.0628,0.0642,0.0607,0.0588,0.0603,0.0615,0.044,0.0439,0.0437,0,0,-0.0132,-0.0122,-0.0084,-0.0035,0.0045,0.0072,0.0116,0.0214,0.0282,0.0408,0.0417,0.0516,0.062,0.0638,0.0653,0.081,0.0733,0.0861,0.0937,0.0926,0.0937,0.0946,0.0879,0.0881,0.0876,0.0876,0.0876,0,-0.0132,-0.0091,-0.006,0.0006,0.0041,0.0112,0.0181,0.0253,0.0379,0.0431,0.048,0.0638,0.0682,0.0751,0.0833,0.0853,0.0815,0.084,0.0947,0.0955,0.0961,0.089,0.089,0.0885,0.0884,0.0883,0.0882,0,-0.0071,-0.0027,0.0015,0.0101,0.0152,0.0232,0.0312,0.0415,0.0517,0.0575,0.0724,0.0797,0.0875,0.0939,0.0946,0.1035,0.0982,0.0967,0.0871,0.0985,0.0905,0.0901,0.0898,0.0894,0.0892,0.089,0,0,-0.0091,0.0026,0.0049,0.0087,0.0213,0.0251,0.0378,0.0477,0.0544,0.0713,0.0792,0.0951,0.1009,0.103,0.1071,0.1095,0.1147,0.1082,0.1077,0.0989,0.1091,0.1008,0.0994,0.1162,0.1163,0.1163,0.1016,0,-0.0041,0.005,0.0115,0.0211,0.0259,0.0352,0.0441,0.0545,0.0653,0.0755,0.0855,0.0962,0.1033,0.1107,0.115,0.114,0.1146,0.1184,0.1014,0.1007,0.0898,0.0991,0.1165,0.1013,0.1012,0.1011,0.101,0,0.0011,0.0054,0.0148,0.0233,0.027,0.0355,0.0471,0.0566,0.0702,0.0793,0.0915,0.0984,0.1083,0.1123,0.1142,0.1173,0.1153,0.1131,0.1125,0.0976,0.0918,0.0877,0.1002,0.1003,0.1003,0.1004,0.1004,0,-0.0047,0.0075,0.0131,0.017,0.0291,0.0375,0.0463,0.0602,0.0672,0.0826,0.0879,0.0993,0.1054,0.1073,0.1096,0.1131,0.1051,0.1071,0.0949,0.0939,0.0979,0.0971,0.1047,0.1047,0.1048,0.1048,0.1049,0,-0.0035,0.0008,0.0121,0.0155,0.0239,0.0352,0.047,0.0571,0.0702,0.0758,0.0907,0.0922,0.1056,0.1044,0.1056,0.0982,0.1017,0.0949,0.0907,0.1053,0.1055,0.0975,0.0969,0.1043,0.1044,0.1045,0.1046,0,-0.008,-0.0012,0.004,0.017,0.0223,0.0296,0.0472,0.053,0.0672,0.074,0.0794,0.0876,0.0869,0.0921,0.0907,0.0904,0.0849,0.0799,0.0907,0.0873,0.0746,0.075,0.0653,0.065,0.0646,0.0643,0.0641,0,-0.0085,-0.0063,0.0034,0.0075,0.0164,0.0288,0.0365,0.0521,0.0566,0.0671,0.0658,0.0702,0.0751,0.0628,0.07,0.0677,0.0685,0.0653,0.077,0.0742,0.0711,0.072,0.0729,0.0636,0.0635,0.0634,0.0633,0,-0.0115,-0.0084,-0.0047,0.0031,0.0118,0.0175,0.0298,0.0311,0.0458,0.0565,0.0539,0.0566,0.052,0.0535,0.0533,0.0517,0.0693,0.062,0.0628,0.0737,0.072,0.0694,0.0706,0.0622,0.0623,0.0625,0.0625,0,-0.0139,-0.0133,-0.0088,-0.0008,0.0055,0.0068,0.0132,0.0187,0.0246,0.039,0.0343,0.039,0.0463,0.0437,0.0407,0.0427,0.0449,0.0476,0.0493,0.0506,0.0542,0.0504,0.0293,0,0,0,0,0,-0.0148,-0.0147,-0.0119,-0.0057,-0.0011,0.0027,0.0081,0.0133,0.0252,0.0219,0.031,0.0279,0.0299,0.0282,0.0277,0.0328,0.0433,0.0321,0.0468,0.0558,0.0571,0.0637,0,0,0,0,0,0,-0.016,-0.0151,-0.0147,-0.0116,-0.0076,-0.0048,-0.0032,0.0027,0.0015,0.0145,0.0126,0.0273,0.0252,0.0312,0.0278,0.0288,0.0375,0.0375,0.0374,0.0551,0.0563,0.0573,0.0645,0,0,0,0,0]},{"header":{"parameterUnit":"m.s-1","parameterCategory":2,"la1":30.2991,"la2":30.254,"lo1":-89.0895,"lo2":-89.0444,"dy":0.0017,"dx":0.0017,"nx":28,"ny":28,"refTime":"2023-10-20T21:00:00:Z","depth":"4","parameterNumber":3,"parameterNumberName":"V-component_of_CURRENTS"},"data":[0,0,0,0,0,0,0,0,0,0,0,0,0,0,0,0,0,0,0,0,0,0,0,0,0,0,0,0,0,0,0,0,0,0,0,0,0,0,0,0,0,0,0,0,0,0,0,0,0,0,0,0,0,0,0,0,0,0,0.0515,0.0515,0,0.0565,0.0566,0.0567,0.0646,0.0647,0.0648,0.0649,0.0635,0.0634,0.0633,0,0,0,0,0,0,0,0,0,0,0,0,0,0.0485,0.0485,0.0515,0.0515,0.0515,0.0565,0.0566,0.0567,0.0646,0.0647,0.0648,0.0649,0.0636,0.0634,0.0633,0,0,0,0,0,0,0,0,0,0,0,0,0,0.0518,0.0486,0.0515,0.0556,0.056,0.0565,0.0566,0.0568,0.0646,0.0647,0.0648,0.065,0.0636,0.0634,0.0633,0.0595,0,0,0.0627,0.0626,0,0,0,0,0,0,0,0,0.0516,0.052,0.055,0.0553,0.0557,0.0596,0.055,0.0572,0.0645,0.0619,0.0649,0.065,0.0611,0.0612,0.0627,0.0594,0.0594,0.0627,0.0626,0.0625,0.0625,0,0,0,0,0,0,0,0.0514,0.0518,0.0541,0.055,0.0554,0.0571,0.0578,0.0556,0.061,0.0622,0.0626,0.0622,0.0614,0.0629,0.0627,0.0593,0.0627,0.0626,0.0624,0.0624,0.0543,0.0542,0,0,0,0,0,0,0.0495,0.0516,0.0539,0.0542,0.0533,0.057,0.0578,0.0587,0.0612,0.0616,0.0621,0.0625,0.0631,0.0629,0.0627,0.0617,0.0625,0.0624,0.0623,0.0544,0.0543,0.0542,0,0,0,0,0,0,0.0494,0.0497,0.0537,0.0525,0.053,0.0568,0.0578,0.0587,0.0655,0.0611,0.0616,0.0684,0.0632,0.0629,0.0623,0.0616,0.0623,0.0621,0.0545,0.0544,0.0542,0.0575,0,0,0,0,0,0,0.0493,0.0497,0.051,0.0524,0.053,0.0573,0.0576,0.0587,0.0644,0.0652,0.0665,0.0663,0.0633,0.0625,0.0621,0.0614,0.062,0.0547,0.0545,0.0543,0.0576,0.0575,0.0575,0,0,0,0,0,0.0492,0.0498,0.0511,0.0514,0.0543,0.0574,0.0581,0.0615,0.0646,0.0682,0.067,0.0666,0.0609,0.0623,0.0618,0.061,0.0548,0.0545,0.0543,0.0576,0.0575,0.0575,0,0,0,0,0,0,0.0488,0.0506,0.0521,0.0532,0.0566,0.0586,0.0625,0.0646,0.0672,0.0686,0.0661,0.0656,0.0643,0.0621,0.0638,0.0577,0.0574,0.057,0.06,0.06,0.0599,0.0564,0.0618,0,0,0,0,0,0.0491,0.0515,0.053,0.0551,0.0578,0.0616,0.0639,0.0659,0.0672,0.0692,0.0678,0.0654,0.0619,0.0611,0.0578,0.0556,0.0529,0.0542,0.0542,0.0542,0.0507,0.046,0.0452,0.0534,0.0534,0.0534,0,0,0.0495,0.0509,0.0523,0.0554,0.0598,0.0613,0.064,0.0691,0.0685,0.0677,0.068,0.0661,0.0614,0.0578,0.057,0.0567,0.0513,0.0539,0.0539,0.0503,0.0457,0.0449,0.0442,0.0532,0.0532,0.0533,0,0,0.0516,0.0543,0.0576,0.0597,0.0646,0.0651,0.0677,0.0708,0.0722,0.0706,0.0689,0.0666,0.0626,0.0578,0.055,0.0527,0.0515,0.0528,0.0496,0.0453,0.0446,0.044,0.044,0.0433,0.0525,0.0525,0.0525,0,0.0522,0.0552,0.0592,0.0619,0.0628,0.0673,0.0692,0.0698,0.0707,0.069,0.0708,0.0624,0.0609,0.0538,0.0523,0.0526,0.0512,0.0512,0.0454,0.0446,0.0439,0.0441,0.0432,0.0527,0.0526,0.0526,0.0526,0,0.055,0.058,0.0611,0.0646,0.0662,0.0694,0.069,0.07,0.0709,0.0682,0.0638,0.0603,0.054,0.0543,0.0522,0.0457,0.0471,0.0467,0.0461,0.0433,0.0437,0.0428,0.0529,0.0528,0.0528,0.0527,0,0,0.0549,0.0615,0.0633,0.0651,0.0675,0.0693,0.0677,0.0662,0.065,0.0623,0.0585,0.0517,0.0498,0.046,0.0445,0.0409,0.0375,0.0412,0.041,0.0423,0.0307,0.032,0.0311,0.0365,0.0362,0.036,0.0349,0,0.057,0.0615,0.0634,0.0665,0.0684,0.0691,0.0672,0.0649,0.0625,0.059,0.0536,0.0491,0.0466,0.045,0.0399,0.0383,0.0343,0.0379,0.0321,0.0319,0.0341,0.0297,0.0352,0.0342,0.034,0.0339,0.0337,0,0.0582,0.061,0.0649,0.0669,0.0685,0.069,0.067,0.0651,0.059,0.0566,0.0488,0.0454,0.0377,0.0378,0.0287,0.0314,0.0288,0.0281,0.0281,0.0258,0.0311,0.0362,0.0321,0.0322,0.0323,0.0324,0.0325,0,0.0556,0.0611,0.0645,0.0652,0.0679,0.0688,0.0685,0.0641,0.063,0.054,0.0533,0.0414,0.04,0.031,0.0279,0.0275,0.0214,0.0213,0.0196,0.02,0.0182,0.0189,0.0123,0.0123,0.0123,0.0123,0.0123,0,0.0535,0.0567,0.0645,0.0661,0.0693,0.0689,0.07,0.0667,0.0629,0.0611,0.0519,0.0488,0.0382,0.0341,0.0273,0.0213,0.0198,0.0163,0.0175,0.0204,0.0213,0.0179,0.0186,0.0123,0.0123,0.0123,0.0123,0,0.0495,0.0553,0.0598,0.0661,0.0689,0.0701,0.0741,0.0737,0.0693,0.0669,0.0645,0.0556,0.0478,0.0403,0.0301,0.0245,0.0169,0.0154,0.0222,0.0244,0.0186,0.0194,0.0103,0.0103,0.0103,0.0103,0.0103,0,0.0474,0.0502,0.0614,0.0667,0.071,0.0746,0.0783,0.0761,0.0748,0.0707,0.0694,0.0629,0.056,0.042,0.0332,0.0203,0.0184,0.0159,0.011,0.0152,0.0173,0.0182,0.019,0.0102,0.0102,0.0102,0.0102,0,0.0444,0.051,0.0552,0.0662,0.0736,0.0791,0.0824,0.0796,0.0766,0.0792,0.0692,0.0598,0.0535,0.0397,0.0327,0.0228,0.0169,0.0156,0.0155,0.0108,0.015,0.0173,0.0182,0.0102,0.0102,0.0102,0.0102,0,0.0439,0.0454,0.0549,0.0624,0.0739,0.0772,0.0782,0.077,0.0751,0.0696,0.0678,0.0582,0.0554,0.0414,0.0335,0.025,0.0206,0.0162,0.0159,0.0159,0.0172,0.0233,0.0195,0,0,0,0,0,0.0435,0.0441,0.0511,0.0576,0.0694,0.0759,0.0799,0.0793,0.0781,0.0709,0.0673,0.0591,0.0446,0.0389,0.0294,0.0323,0.0198,0.0212,0.0146,0.0099,0.0099,0.0104,0,0,0,0,0,0,0.0421,0.0483,0.0479,0.0549,0.0594,0.0689,0.0708,0.0695,0.0631,0.0626,0.054,0.0576,0.043,0.0498,0.0294,0.0277,0.0221,0.0179,0.0176,0.0098,0.0099,0.01,0.0104,0,0,0,0,0]}]]